Location: Unspecified
(0.0000°N, 0.0000°E)
Time: 21:13:04
(UTC+00:00)

Vela 2B - Visible Passes

Search period start: 01 December 2021 00:00
Search period end: 11 December 2021 00:00
Orbit: 62706 x 143349 km, 44.5° (Epoch: 20 November)

Date Brightness Start Highest point End Pass type
(mag) Time Alt. Az. Time Alt. Az. Time Alt. Az.
01 Dec ? 10:25:28 10° ENE 16:13:11 70° N 21:48:18 10° WNW visible
02 Dec ? 13:48:43 10° ESE 19:43:17 50° SSE 09:11:49 10° WSW daylight
04 Dec ? 04:57:14 10° NE 11:12:02 43° N 17:13:36 10° NW visible
05 Dec ? 09:40:25 10° ENE 15:28:56 64° N 21:01:04 10° WNW visible
06 Dec ? 12:33:00 10° E 18:21:00 67° SSE 01:58:45 10° SW visible
08 Dec ? 03:08:04 10° NE 09:23:13 45° N 15:51:42 10° NW visible
09 Dec ? 08:52:32 10° NE 14:42:41 59° N 20:13:12 10° WNW visible
10 Dec ? 11:36:18 10° E 17:24:17 80° S 23:41:56 10° WSW visible
